Find Starlink 5853

NORAD ID: 56881 Int'l Des: 2023-083 Owner: SPXS Country: US Constellation: starlink operational
LEOCIRCULAR

实时位置

正在加载3D地球...

关于 Starlink 5853

正在加载描述...

即将过境

Passes for default location (London). Set your location on the main map for personalized predictions.

高度历史

Loading altitude history...

两行轨道根数

1 56881U 23083F 26125.48846128 .00002024 00000-0 85111-4 0 9999
2 56881 43.0043 124.7103 0000853 270.5293 89.5460 15.26739277160318
Epoch: May 5, 2026 • Age: 27 hours

当前状态

高度 485.5 km
速度 7.63 km/s
星下点 23.73°N, 63.3°E
发射日期 Jun 12, 2023
运行时间 2.8 years
类型 internet

技术详情

分类 Payload
质量 305.00 kg
干质量 290.00 kg
总质量 305.00 kg
长度 0.20 m
直径 2.80 m
跨度 9.00 m
形状 Box + pan
制造商 SPXS
平台类型 Starlink
阶段状态 In Orbit
所有者/国家 SPXS/US

Most Searched